+ View the NASA Portal
+ Center for Near-Earth Object Studies
IMPORTANT:
The SSD Announcement email list is now available. Major changes are coming in the near future, including possible hostname and/or URL changes. To be notified of such changes, subscribe to this email list.
Please visit
this page
for more details.
Don't show this message again
JPL Small-Body Database Browser
Search:
[
help
]
434090 (2002 CF217)
Classification:
Main-belt Asteroid
SPK-ID:
2434090
[
Ephemeris
|
Orbit Diagram
|
Orbital Elements
|
Mission Design
|
Physical Parameters
|
Discovery Circumstances
|
Close-Approach Data
]
[ show orbit diagram ]
Orbital Elements at Epoch 2458600.5 (2019-Apr-27.0) TDB
Reference:
JPL 15
(heliocentric ecliptic J2000)
Element
Value
Uncertainty (1-sigma)
Units
e
.1790973573101148
8.6797e-08
a
2.614693342092636
1.9024e-08
au
q
2.146408674347493
2.2699e-07
au
i
13.14192561280965
6.8573e-06
deg
node
145.2745399442609
3.8424e-05
deg
peri
61.89841897884293
4.1687e-05
deg
M
349.5710965189751
1.4897e-05
deg
t
p
2458645.236882380435
(2019-Jun-10.73688238)
6.4004e-05
TDB
period
1544.292521860986
4.23
1.6854e-05
4.614e-08
d
yr
n
.2331164561790233
2.5441e-09
deg/d
Q
3.082978009837779
2.2431e-08
au
Orbit Determination Parameters
# obs. used (total)
228
data-arc span
6319 days (17.30 yr)
first obs. used
2002-02-10
last obs. used
2019-05-31
planetary ephem.
DE431
SB-pert. ephem.
SB431-N16
condition code
0
norm. resid. RMS
.64816
source
ORB
producer
Otto Matic
solution date
2019-Sep-24 07:34:57
Additional Information
Earth MOID
= 1.17937 au
Jupiter MOID
= 1.97687 au
T_jup
= 3.348
[ show covariance matrix ]
[
Ephemeris
|
Orbit Diagram
|
Orbital Elements
|
Mission Design
|
Physical Parameters
|
Discovery Circumstances
|
Close-Approach Data
]
Physical Parameter Table
Parameter
Symbol
Value
Units
Sigma
Reference
Notes
absolute magnitude
H
16.5
n/a
MPO434581
434090 (2002 CF217)
Discovered 2002-Feb-10 by LINEAR at Socorro
Reference:
Last Updated:
2015-06-04
[ show close-approach data ]
Alternate Designations
2002 CF217
= 2015 FQ286
[
Ephemeris
|
Orbit Diagram
|
Orbital Elements
|
Mission Design
|
Physical Parameters
|
Discovery Circumstances
|
Close-Approach Data
]
2019-Dec-12 01:29 UT
(server date/time)
Site Manager:
Ryan S. Park
Webmaster
:
Alan B. Chamberlin